Aérodrome :
LOGIN :

S'inscrire | Disclaimer

   EN    FR    IT 

 










Légende :    VFR   VFR Marginal   IFR   IFR Intensif   IFR Très Intensif
Visi : 
Plafond : 
>= 8 km
>= 3000ft
5 à 8 km
1000 à 3000 ft
1500m à 5 km
500 à 1000 ft
800 à 1500m
200 à 500 ft
< 800m
< 200 ft
Symboles :   Orages  Brouillard  Fortes neiges  Fortes précipitations  Vent > 20 kt
SIGMETs :   Divers  Orages  Givrage  Turbulence  Onde Orograph.  Cendres Volcan.






- Altitude de l'aérodrome : 39 ft
- Code IATA : ANR


EBAW - Anvers / Antwerpen Deurne

DERNIER METAR :
  • 281250Z 05009KT 020V110 CAVOK 20/03 Q1032 NOSIG

METARs EXPIRÉS :
  • 281220Z 07009KT 030V110 CAVOK 20/03 Q1033 NOSIG
  • 281150Z 03009KT 360V080 CAVOK 20/03 Q1033 NOSIG
  • 281120Z 07010KT 030V110 CAVOK 19/04 Q1033 NOSIG
  • 281050Z 07009KT 020V090 CAVOK 18/03 Q1033 NOSIG
  • 281020Z 06010KT 020V120 CAVOK 19/04 Q1034 NOSIG

TAF TAF EBAW
Valide du 28 à 12h jusqu'au 28 à 21h UTC


281106Z 2812/2821 05011KT CAVOK



MET'MAP, la Météo Aéronautique d'un coup d'oeil ! - Copyright ORBIFLY Décembre 2007 - Disclaimer

ORBIFLY MET'MAP TEAM :

Programmation & Développement : Alexandra Zaïnal
Sur une idée originale de : Baudouin d'Aumeries
Assistance à la programmation : Marc-Olivier Méhu
Soutien technique & logistique : Manuel Goepfert

Contact : metmap@orbifly.com




SOURCES & CREDITS :

   NOAA